Other Public Products
Issued by NWS Charleston, SC

Current Version | Previous Version | Text Only | Print | Product List | Glossary Off
Versions: 1 2 3 4 5 6 7 8 9 10 11 12 13 14 15 16 17 18 19 20 21 22 23 24 25 26 27 28 29 30 31 32 33 34 35 36 37 38 39 40 41 42 43 44 45 46 47 48 49 50

873
FPUS82 KCHS 221612
OPUCHS

TEST...KCHS/KSAV Gateway Observations...TEST
National Weather Service Charleston SC
1100 AM EST SUN JAN 22 2017

NOTE: "fair" indicates few or no clouds below 12,000 feet with no
significant weather and/or obstructions to visibility.

SCZ050-WAZ558-NCZ071-TXZ119-213-PAZ071-DCZ001-FLZ074-172-MI076-
NYZ176-178-MAZ016-IL014-TNZ027-NJZ106-GAZ044-MD014-221700-
...Gateway Observations for Charleston International...

CITY           SKY/WX    TMP DP  RH WIND       PRES   REMARKS
Chas Airport   LGT RAIN  62  60  93 SE13      29.60F
Seattle        LGT RAIN  45  36  70 W5        29.43R
Charlotte      CLOUDY    59  55  87 S5        29.60F
Dallas DFW     PTSUNNY   54  44  69 NW23G31   29.58R
Dallas Love    PTSUNNY   52  43  71 NW21      29.59R
Philladelphia  CLOUDY    48  46  93 N6        29.74S FOG
Wash National  CLOUDY    50  48  93 N8        29.72F
Baltimore      CLOUDY    48  47  96 CALM      29.72F
Miami          PTSUNNY   84  69  60 S17G30    29.83F
Detroit        FOG       46  46 100 CALM      29.65R VSB<1/4
Newark         FOG       47  46  97 N8        29.74S VSB 1/4
Laguardia      FOG       44  43  96 NE12      29.75R VSB 1/2
J F K          CLOUDY    48  48 100 NE6       29.76R FOG
Boston Logan   CLOUDY    46  42  86 NE12      29.82S
Ft. Lauderdale PTSUNNY   82  70  66 S17G26    29.82F
Chicago O`Hare CLOUDY    42  39  89 N6        29.64R
Chicago Midway CLOUDY    42  40  92 NE6       29.65R FOG
Houston Bush   MOSUNNY   62  37  39 W17G29    29.60R
Houston Hobby  MOSUNNY   63  35  35 W21G29    29.61R
Nashville      PTSUNNY   59  55  87 SE8       29.47F
Atlanta        FOG       58  58 100 SE12      29.54S VSB 1/4

$$

GAZ044-118-TXZ119-213-NCZ071-DCZ001-MDZ014-506-PAZ021-071-NJZ106-
NYZ176-178-MAZ106-OHZ011-021-055-MIZ076-KYZ091-ILZ014-INZ047-
MNZ060-221700-
...Gateway Observations for Savannah International...

CITY           SKY/WX    TMP DP  RH WIND       PRES   REMARKS
Savannah Arpt  RAIN      62  59  90 SE8       29.63S
Atlanta        FOG       58  58 100 SE12      29.54S VSB 1/4
Charlotte      CLOUDY    59  55  87 S5        29.60F
Dallas DFW     PTSUNNY   54  44  69 NW23G31   29.58R
Houston Bush   MOSUNNY   62  37  39 W17G29    29.60R
Wash National  CLOUDY    50  48  93 N8        29.72F
Wash Dulles    CLOUDY    47  45  93 N7        29.72F FOG
Baltimore      CLOUDY    48  47  96 CALM      29.72F
Philadelphia   CLOUDY    48  46  93 N6        29.74S FOG
Newark         FOG       47  46  97 N8        29.74S VSB 1/4
Laguardia      FOG       44  43  96 NE12      29.75R VSB 1/2
J F K          CLOUDY    48  48 100 NE6       29.76R FOG
Boston         CLOUDY    46  42  86 NE12      29.82S
Pittsburg      CLOUDY    54  50  86 E3        29.63F
Akron          PTSUNNY   57  50  77 SE7       29.64F
Cleveland      PTSUNNY   59  50  72 S5        29.66F
Cincinnati     CLOUDY    54  51  90 NE7       29.56S
Columbus         N/A     53  53 100 NE8       29.60S
Detroit        FOG       46  46 100 CALM      29.65R VSB<1/4
Chicago O`Hare CLOUDY    42  39  89 N6        29.64R
Minneapolis    CLOUDY    37  34  89 NW6       29.71R WCI  32
Indianapolis   CLOUDY    54  50  86 E7        29.57S

$$




USA.gov is the U.S. government's official web portal to all federal, state and local government web resources and services.